FW0958 Weather Reports


Display with metric or nautical units.
time (UTC)temp
F
wind
direction
speed
MPH
gust
MPH
rain 1hr
in
rain 24hr
in
rain mn
in
humidity
%
barometer
mb
20260505083348 57 45 0.0 0.0 0.01 0.06 0.03 92 1013.4
20260505082848 57 45 0.0 0.0 0.01 0.07 0.03 92 1013.6
20260505082347 57 45 0.0 0.0 0.02 0.07 0.03 92 1013.8
20260505081852 57 45 0.0 0.0 0.03 0.07 0.03 92 1013.8
20260505081846 57 45 0.0 0.0 0.02 0.07 0.03 92 1013.8
20260505080847 57 45 0.0 0.0 0.03 0.07 0.03 92 1014.0
20260505080347 57 45 0.0 0.0 0.03 0.07 0.03 92 1014.0
20260505075852 57 45 0.0 0.0 0.02 0.06 0.02 92 1014.1
20260505075847 57 45 0.0 0.0 0.02 0.06 0.02 92 1014.0
20260505074847 58 45 0.0 0.0 0.02 0.06 0.02 92 1014.0
20260505074348 58 45 0.0 0.0 0.02 0.06 0.02 92 1014.1
20260505073847 58 45 0.0 0.0 0.02 0.06 0.02 91 1014.1
20260505073351 58 45 0.0 0.0 0.02 0.06 0.02 91 1014.1
20260505073347 58 45 0.0 0.0 0.02 0.06 0.02 91 1014.2
20260505072347 58 45 0.0 0.0 0.01 0.05 0.02 92 1014.2
20260505071846 57 45 0.0 0.0 0.01 0.05 0.01 91 1014.4
20260505071344 58 45 0.0 0.0 0.00 0.04 0.00 91 1014.2
20260505070845 57 45 0.0 0.0 0.00 0.04 0.00 91 1014.4
20260505070346 57 45 0.0 0.0 0.00 0.04 0.00 91 1014.4
20260505065843 57 45 0.0 0.0 0.00 0.04 0.04 91 1014.2
20260505065343 57 45 0.0 0.0 0.00 0.04 0.04 91 1014.2
20260505064842 57 45 0.0 0.0 0.00 0.04 0.04 90 1014.4
20260505064347 57 45 0.0 0.0 0.00 0.04 0.04 90 1014.6
20260505064342 57 45 0.0 0.0 0.00 0.04 0.04 90 1014.4
20260505063342 57 45 0.0 0.0 0.00 0.04 0.04 90 1014.5
20260505062844 57 45 0.0 0.0 0.00 0.04 0.04 90 1014.4
20260505062342 57 45 0.0 0.0 0.00 0.04 0.04 90 1014.6
20260505061847 57 45 0.0 3.0 0.00 0.04 0.04 89 1014.5
20260505061841 57 45 0.0 1.0 0.00 0.04 0.04 90 1014.6
20260505061500 57 45 0.0 3.0 0.01 0.04 0.04 89 1014.5
20260505060342 57 39 0.0 2.0 0.01 0.04 0.04 89 1014.7
20260505055843 57 39 0.0 0.0 0.02 0.04 0.04 89 1014.6
20260505055342 57 39 0.0 1.0 0.02 0.04 0.04 89 1014.8
20260505054842 58 39 0.0 3.0 0.02 0.04 0.04 88 1014.8
20260505054343 58 39 0.0 3.0 0.02 0.04 0.04 88 1014.9
20260505053841 58 34 0.0 3.0 0.02 0.04 0.04 87 1014.9
20260505053341 58 25 0.0 3.0 0.02 0.04 0.04 87 1015.0
20260505052842 59 29 0.0 3.0 0.02 0.04 0.04 86 1014.9
20260505052342 59 39 0.0 4.0 0.02 0.04 0.04 86 1015.0
20260505051842 59 39 1.0 4.0 0.02 0.04 0.04 85 1015.1
20260505051344 60 343 1.0 7.0 0.02 0.04 0.04 84 1015.0
20260505050843 60 300 2.0 8.0 0.01 0.03 0.03 83 1015.1
20260505050348 61 44 1.0 8.0 0.00 0.02 0.02 78 1015.2
20260505050342 61 303 2.0 8.0 0.01 0.03 0.03 81 1015.1
20260505041335 60 309 0.0 0.0 0.00 0.02 0.02 79 1015.1
20260505040835 60 309 0.0 0.0 0.00 0.02 0.02 79 1015.2
20260505040337 60 309 0.0 0.0 0.00 0.02 0.02 79 1015.0
20260505035835 60 309 0.0 0.0 0.00 0.02 0.02 79 1015.0
20260505035335 60 309 0.0 0.0 0.00 0.02 0.02 79 1015.1
20260505034837 60 309 0.0 0.0 0.00 0.02 0.02 79 1015.1
20260505034340 60 309 0.0 1.0 0.00 0.02 0.02 79 1015.0
20260505034336 60 309 0.0 0.0 0.00 0.02 0.02 79 1015.1
20260505033335 60 331 0.0 2.0 0.00 0.02 0.02 79 1015.0
20260505032840 60 312 0.0 1.0 0.00 0.02 0.02 79 1014.9
20260505032836 60 331 0.0 2.0 0.00 0.02 0.02 79 1014.9
20260505031839 60 336 0.0 4.0 0.00 0.02 0.02 79 1014.8
20260505031834 60 312 0.0 4.0 0.00 0.02 0.02 79 1014.8
20260505030839 61 324 1.0 8.0 0.00 0.02 0.02 78 1014.5
20260505030833 60 342 0.0 4.0 0.00 0.02 0.02 78 1014.8
20260505030333 60 11 1.0 8.0 0.00 0.02 0.02 78 1014.7
20260505025335 61 320 1.0 5.0 0.00 0.02 0.02 77 1014.5
20260505024833 61 278 1.0 5.0 0.00 0.02 0.02 77 1014.4
20260505024335 61 357 1.0 7.0 0.00 0.02 0.02 77 1014.5
20260505023834 61 345 1.0 7.0 0.00 0.02 0.02 77 1014.4
20260505023333 61 343 0.0 4.0 0.00 0.02 0.02 76 1014.5
20260505022832 61 9 1.0 7.0 0.00 0.02 0.02 76 1014.5
20260505022331 62 328 1.0 7.0 0.00 0.02 0.02 76 1014.5
20260505021832 62 343 1.0 7.0 0.00 0.02 0.02 75 1014.6
20260505021338 62 357 2.0 7.0 0.00 0.02 0.02 74 1014.7
20260505021332 62 320 2.0 7.0 0.00 0.02 0.02 75 1014.6
20260505020950 62 330 2.0 8.0 0.00 0.02 0.02 73 1014.6
20260505015831 63 342 2.0 8.0 0.00 0.02 0.02 72 1014.6
20260505015331 63 322 1.0 8.0 0.00 0.02 0.02 72 1014.4
20260505014835 63 288 2.0 9.0 0.00 0.02 0.02 71 1014.5
20260505014830 63 14 3.0 11.0 0.00 0.02 0.02 70 1014.4
20260505013834 64 356 1.0 8.0 0.00 0.02 0.02 69 1014.7
20260505013828 64 283 2.0 11.0 0.00 0.02 0.02 69 1014.7
20260505012830 65 332 1.0 8.0 0.00 0.02 0.02 68 1014.6
20260505012328 65 357 1.0 8.0 0.00 0.02 0.02 66 1014.5
20260505011832 66 330 1.0 11.0 0.00 0.02 0.02 67 1014.7
20260505011330 66 39 2.0 11.0 0.00 0.02 0.02 67 1014.7
20260505010830 65 326 3.0 11.0 0.00 0.02 0.02 65 1014.7
20260505010330 66 330 4.0 11.0 0.00 0.02 0.02 66 1014.7
20260505005827 66 340 4.0 11.0 0.00 0.02 0.02 66 1014.8
20260505005327 66 311 4.0 10.0 0.00 0.02 0.02 65 1014.8
20260505004829 66 56 4.0 11.0 0.00 0.02 0.02 65 1014.8
20260505004327 66 313 4.0 12.0 0.00 0.02 0.02 65 1014.7
20260505003826 66 307 3.0 12.0 0.00 0.02 0.02 64 1014.7
20260505003328 67 320 3.0 8.0 0.00 0.02 0.02 62 1014.9
20260505002829 67 350 2.0 8.0 0.00 0.02 0.02 62 1014.8
20260505002327 67 328 2.0 12.0 0.00 0.02 0.02 62 1014.7
20260505001827 67 340 3.0 12.0 0.00 0.02 0.02 61 1014.7
20260505001325 67 318 2.0 11.0 0.00 0.02 0.02 60 1014.8
20260505000826 68 345 3.0 10.0 0.00 0.02 0.02 60 1014.8
20260505000331 68 295 4.0 11.0 0.00 0.02 0.02 61 1014.8
20260505000325 68 270 3.0 10.0 0.00 0.02 0.02 60 1014.8
20260504235326 67 322 4.0 11.0 0.00 0.02 0.02 62 1014.8
20260504234826 67 34 4.0 10.0 0.00 0.02 0.02 60 1014.9
20260504234325 68 341 3.0 10.0 0.00 0.02 0.02 60 1014.8
20260504233825 68 7 3.0 10.0 0.00 0.02 0.02 60 1014.7
20260504233326 69 290 4.0 13.0 0.00 0.02 0.02 59 1014.9
20260504232826 69 283 4.0 13.0 0.00 0.02 0.02 59 1014.8
20260504232326 69 306 3.0 11.0 0.00 0.02 0.02 58 1014.7
20260504231826 69 12 5.0 12.0 0.00 0.02 0.02 56 1014.7
20260504231326 69 350 4.0 12.0 0.00 0.02 0.02 55 1014.7
20260504230826 70 309 4.0 12.0 0.00 0.02 0.02 56 1014.7
20260504230330 70 306 3.0 11.0 0.00 0.02 0.02 58 1014.7
20260504230324 70 288 4.0 12.0 0.00 0.02 0.02 57 1014.7
20260504225326 70 342 3.0 11.0 0.00 0.02 0.02 59 1014.6
20260504224824 69 324 3.0 11.0 0.00 0.02 0.02 59 1014.5
20260504224331 69 338 3.0 11.0 0.00 0.02 0.02 59 1014.5
20260504224326 69 39 3.0 11.0 0.00 0.02 0.02 59 1014.7
20260504223325 69 339 3.0 10.0 0.00 0.02 0.02 59 1014.6
20260504222827 70 63 3.0 11.0 0.00 0.02 0.02 58 1014.7
20260504222324 70 4 3.0 12.0 0.00 0.02 0.02 59 1014.7
20260504221824 70 320 4.0 12.0 0.00 0.02 0.02 57 1014.7
20260504221324 70 291 4.0 15.0 0.00 0.02 0.02 57 1014.9
20260504220824 70 7 4.0 15.0 0.00 0.02 0.02 56 1014.9
20260504220324 70 332 4.0 16.0 0.00 0.02 0.02 55 1014.9
20260504215825 71 324 4.0 16.0 0.00 0.02 0.02 55 1015.0
20260504215324 71 334 4.0 13.0 0.00 0.02 0.02 54 1014.9
20260504214825 70 18 3.0 12.0 0.00 0.02 0.02 54 1015.0
20260504214325 70 340 3.0 10.0 0.00 0.02 0.02 54 1015.0
20260504213826 71 333 4.0 13.0 0.00 0.02 0.02 53 1015.2
20260504213324 71 344 4.0 13.0 0.00 0.02 0.02 53 1015.2
20260504212825 71 324 4.0 11.0 0.00 0.02 0.02 54 1015.0
20260504212323 71 307 3.0 11.0 0.00 0.02 0.02 53 1015.2
20260504211824 72 351 3.0 11.0 0.00 0.02 0.02 52 1015.3
20260504211322 72 9 4.0 16.0 0.00 0.02 0.02 53 1015.3
20260504210822 71 47 4.0 16.0 0.00 0.02 0.02 53 1015.2
20260504210324 71 335 4.0 13.0 0.00 0.02 0.02 54 1015.2
20260504205824 71 346 4.0 13.0 0.00 0.02 0.02 53 1015.4
20260504205327 71 43 3.0 9.0 0.00 0.02 0.02 53 1015.3
20260504205322 71 303 3.0 11.0 0.00 0.02 0.02 54 1015.2
20260504204323 71 44 3.0 12.0 0.00 0.02 0.02 54 1015.3
20260504203827 71 256 4.0 11.0 0.00 0.02 0.02 55 1015.3
20260504203823 71 326 4.0 12.0 0.00 0.02 0.02 54 1015.3
20260504202822 72 288 4.0 11.0 0.00 0.02 0.02 56 1015.2
20260504202320 71 336 2.0 11.0 0.00 0.02 0.02 55 1015.2
20260504201826 70 327 2.0 8.0 0.00 0.02 0.02 57 1015.4
20260504201820 71 278 2.0 8.0 0.00 0.02 0.02 57 1015.3
20260504201321 70 69 2.0 8.0 0.00 0.02 0.02 55 1015.3
20260504200939 69 29 2.0 10.0 0.00 0.02 0.02 58 1015.4
20260504195820 69 82 3.0 10.0 0.00 0.02 0.02 58 1015.2
20260504195320 70 24 3.0 10.0 0.00 0.02 0.02 57 1015.3
20260504194821 69 327 3.0 10.0 0.00 0.02 0.02 57 1015.3
20260504194318 69 29 4.0 13.0 0.00 0.02 0.02 57 1015.4
20260504193819 69 350 5.0 13.0 0.00 0.02 0.02 58 1015.5
20260504193318 69 322 4.0 12.0 0.00 0.02 0.02 60 1015.4
20260504192824 69 345 3.0 10.0 0.00 0.02 0.02 61 1015.6
20260504192818 69 351 3.0 11.0 0.00 0.02 0.02 60 1015.4
20260504191824 69 315 2.0 10.0 0.00 0.02 0.02 62 1015.7
20260504191818 69 23 3.0 10.0 0.00 0.02 0.02 61 1015.7
20260504190820 68 10 2.0 10.0 0.00 0.02 0.02 62 1015.6
20260504190318 67 333 3.0 9.0 0.00 0.02 0.02 62 1015.5
20260504185822 68 23 3.0 9.0 0.00 0.02 0.02 61 1015.9
20260504185816 69 351 3.0 10.0 0.00 0.02 0.02 61 1015.8
20260504184816 68 357 3.0 12.0 0.00 0.02 0.02 63 1016.0
20260504184316 68 23 3.0 12.0 0.00 0.02 0.02 62 1015.9
20260504183816 68 311 3.0 9.0 0.00 0.02 0.02 65 1016.0
20260504183317 68 329 3.0 9.0 0.00 0.02 0.02 64 1015.9
20260504182816 67 276 2.0 9.0 0.00 0.02 0.02 65 1016.0
20260504182321 67 316 2.0 7.0 0.00 0.02 0.02 66 1015.9
20260504182315 67 45 3.0 9.0 0.00 0.02 0.02 65 1015.9
20260504181323 67 329 2.0 8.0 0.00 0.02 0.02 67 1016.0
20260504181317 67 317 2.0 8.0 0.00 0.02 0.02 66 1016.1
20260504180315 65 319 2.0 9.0 0.00 0.02 0.02 68 1016.0
20260504175815 64 301 3.0 9.0 0.00 0.02 0.02 70 1016.1
20260504175320 65 319 1.0 8.0 0.00 0.02 0.02 68 1016.1
20260504175314 65 39 2.0 9.0 0.00 0.02 0.02 69 1015.9
20260504174314 64 295 2.0 8.0 0.00 0.02 0.02 70 1016.0
20260504173819 64 353 2.0 8.0 0.00 0.02 0.02 70 1015.9
20260504173814 64 337 2.0 8.0 0.00 0.02 0.02 70 1016.0
20260504172814 64 18 2.0 7.0 0.00 0.02 0.02 72 1016.0
20260504172314 63 6 2.0 7.0 0.00 0.02 0.02 72 1015.8
20260504171815 63 14 2.0 8.0 0.00 0.02 0.02 71 1015.9
20260504171312 62 334 2.0 8.0 0.00 0.02 0.02 72 1015.8
20260504170813 63 25 3.0 10.0 0.00 0.02 0.02 73 1015.7
20260504170312 63 7 2.0 10.0 0.00 0.02 0.02 72 1015.7
20260504160313 60 14 0.0 0.0 0.00 0.02 0.02 82 1015.5
20260504150812 57 39 0.0 2.0 0.00 0.02 0.02 89 1015.3
20260504150313 57 39 0.0 2.0 0.00 0.02 0.02 89 1015.2
20260504140808 56 18 0.0 0.0 0.00 0.02 0.02 90 1014.7
20260504140308 56 18 0.0 0.0 0.00 0.02 0.02 90 1014.9
20260504130811 56 18 0.0 0.0 0.00 0.02 0.02 90 1014.7
20260504130805 56 18 0.0 0.0 0.00 0.02 0.02 90 1014.6
20260504130305 56 18 0.0 0.0 0.00 0.02 0.02 90 1014.8
20260504120309 56 18 0.0 0.0 0.00 0.02 0.02 89 1014.5
20260504120304 56 18 0.0 0.0 0.00 0.02 0.02 89 1014.4
20260504110302 57 18 0.0 0.0 0.00 0.02 0.02 90 1014.5
20260504100420 57 25 0.0 1.0 0.00 0.02 0.02 90 1014.2
20260504100303 57 25 0.0 1.0 0.00 0.02 0.02 90 1014.1
20260504100259 57 25 0.0 2.0 0.00 0.02 0.02 90 1014.1